TimeEDT,TemperatureF,Dew PointF,Humidity,Sea Level PressureIn,VisibilityMPH,Wind Direction,Wind SpeedMPH,Gust SpeedMPH,PrecipitationIn,Events,Conditions,WindDirDegrees,DateUTC
12:53 AM,71.1,66.0,84,29.73,10.0,Calm,Calm,-,N/A,,Clear,0,2013-06-30 04:53:00
1:53 AM,72.0,66.9,84,29.73,10.0,Calm,Calm,-,N/A,,Overcast,0,2013-06-30 05:53:00
2:53 AM,72.0,66.0,81,29.71,10.0,WNW,3.5,-,N/A,,Mostly Cloudy,300,2013-06-30 06:53:00
3:53 AM,71.1,64.0,78,29.70,10.0,Calm,Calm,-,N/A,,Mostly Cloudy,0,2013-06-30 07:53:00
4:53 AM,68.0,64.9,90,29.71,10.0,Calm,Calm,-,N/A,,Clear,0,2013-06-30 08:53:00
5:53 AM,69.1,66.0,90,29.73,10.0,Calm,Calm,-,N/A,,Overcast,0,2013-06-30 09:53:00
6:53 AM,68.0,64.0,87,29.74,10.0,Calm,Calm,-,N/A,,Clear,0,2013-06-30 10:53:00
7:53 AM,72.0,64.9,78,29.75,10.0,Calm,Calm,-,N/A,,Clear,0,2013-06-30 11:53:00
8:53 AM,73.9,66.0,76,29.77,10.0,Calm,Calm,-,N/A,,Clear,0,2013-06-30 12:53:00
9:53 AM,78.1,66.0,66,29.77,10.0,Calm,Calm,-,N/A,,Clear,0,2013-06-30 13:53:00
10:53 AM,81.0,64.0,56,29.76,10.0,Calm,Calm,-,N/A,,Clear,0,2013-06-30 14:53:00
11:53 AM,80.1,64.0,58,29.77,10.0,WSW,4.6,-,N/A,,Mostly Cloudy,240,2013-06-30 15:53:00
12:53 PM,84.0,60.1,44,29.76,10.0,WSW,8.1,-,N/A,,Clear,250,2013-06-30 16:53:00
1:53 PM,82.9,59.0,44,29.74,10.0,SW,4.6,-,N/A,,Partly Cloudy,220,2013-06-30 17:53:00
2:53 PM,82.9,64.9,54,29.73,10.0,Variable,4.6,-,N/A,,Mostly Cloudy,0,2013-06-30 18:53:00
3:53 PM,82.0,66.0,58,29.74,10.0,Variable,3.5,-,N/A,,Scattered Clouds,0,2013-06-30 19:53:00
4:53 PM,80.1,66.9,64,29.74,10.0,East,9.2,-,N/A,,Mostly Cloudy,100,2013-06-30 20:53:00
5:10 PM,78.8,68.0,69,29.79,10.0,SE,9.2,-,N/A,Thunderstorm,Mostly Cloudy,130,2013-06-30 21:10:00
5:25 PM,77.0,68.0,74,29.79,10.0,ESE,8.1,-,N/A,,Mostly Cloudy,120,2013-06-30 21:25:00
5:53 PM,75.0,64.9,71,29.75,10.0,ESE,8.1,-,N/A,,Overcast,120,2013-06-30 21:53:00
6:50 PM,71.6,64.4,78,29.81,9.0,South,9.2,-,0.00,Rain-Thunderstorm,Light Thunderstorms and Rain,170,2013-06-30 22:50:00
6:53 PM,70.0,64.0,81,29.77,9.0,South,10.4,-,0.00,Rain-Thunderstorm,Light Thunderstorms and Rain,180,2013-06-30 22:53:00
7:06 PM,69.8,64.4,83,29.81,6.0,SSE,8.1,-,0.01,Rain,Light Rain,160,2013-06-30 23:06:00
7:53 PM,72.0,64.9,78,29.76,10.0,Calm,Calm,-,0.01,,Overcast,0,2013-06-30 23:53:00
8:53 PM,73.0,63.0,71,29.77,10.0,SE,3.5,-,N/A,,Overcast,130,2013-07-01 00:53:00
9:53 PM,71.1,66.0,84,29.80,10.0,East,3.5,-,N/A,,Mostly Cloudy,90,2013-07-01 01:53:00
10:43 PM,71.6,64.4,78,29.86,10.0,ESE,4.6,-,N/A,,Mostly Cloudy,120,2013-07-01 02:43:00
10:53 PM,71.1,66.0,84,29.81,10.0,SE,5.8,-,N/A,,Mostly Cloudy,130,2013-07-01 02:53:00
11:53 PM,70.0,66.0,87,29.81,10.0,Calm,Calm,-,N/A,,Clear,0,2013-07-01 03:53:00